DW1996 Weather Reports


time (UTC)temp
C
wind
direction
speed
KPH
gust
KPH
rain 1hr
cm
rain 24hr
cm
rain mn
cm
humidity
%
barometer
mb
20260505101513 24 211 9.7 17.7 0.00 0.00 0.00 88 1007.0
20260505100012 24 165 8.0 16.1 0.00 0.00 0.00 88 1007.1
20260505094510 24 193 6.4 16.1 0.00 0.00 0.00 88 1007.3
20260505093011 24 181 8.0 16.1 0.00 0.00 0.00 88 1007.3
20260505091507 24 197 8.0 17.7 0.00 0.00 0.00 88 1007.5
20260505090008 24 192 6.4 17.7 0.00 0.00 0.00 88 1007.3
20260505084504 24 166 8.0 17.7 0.00 0.00 0.00 87 1007.7
20260505083003 24 216 4.8 16.1 0.00 0.00 0.00 87 1007.7
20260505081502 24 174 8.0 16.1 0.00 0.00 0.00 87 1007.6
20260505080110 24 200 9.7 19.3 0.00 0.00 0.00 86 1007.7
20260505074558 24 192 8.0 19.3 0.00 0.00 0.00 86 1007.9
20260505073100 24 199 6.4 16.1 0.00 0.00 0.00 86 1008.2
20260505071555 24 201 6.4 14.5 0.00 0.00 0.00 85 1008.2
20260505070057 24 174 8.0 16.1 0.00 0.00 0.00 85 1008.4
20260505064622 24 193 6.4 17.7 0.00 0.00 0.00 85 1008.4
20260505063047 24 196 8.0 17.7 0.00 0.00 0.00 85 1008.9
20260505061544 24 163 8.0 17.7 0.00 0.00 0.00 85 1008.8
20260505060145 24 175 6.4 17.7 0.00 0.00 0.00 84 1009.1
20260505054547 24 205 9.7 17.7 0.00 0.00 0.00 84 1009.2
20260505053036 24 194 8.0 16.1 0.00 0.00 0.00 83 1009.5
20260505051535 24 152 9.7 17.7 0.00 0.00 0.00 83 1009.5
20260505041529 25 182 9.7 19.3 0.00 0.00 0.00 82 1009.9
20260505040031 25 214 8.0 16.1 0.00 0.00 0.00 82 1010.0
20260505034532 25 188 9.7 19.3 0.00 0.00 0.00 82 1010.0
20260505033030 25 182 9.7 19.3 0.00 0.00 0.00 81 1009.9
20260505031527 25 157 12.9 22.5 0.00 0.00 0.00 81 1009.8
20260505030041 25 207 9.7 22.5 0.00 0.00 0.00 80 1009.7
20260505024525 25 144 6.4 19.3 0.00 0.00 0.00 80 1009.6
20260505023027 25 121 11.3 24.1 0.00 0.00 0.00 79 1009.3
20260505021525 25 142 12.9 24.1 0.00 0.00 0.00 79 1009.1
20260505020024 25 165 11.3 27.4 0.00 0.00 0.00 79 1009.0
20260505014525 25 171 11.3 24.1 0.00 0.00 0.00 78 1009.1
20260505013022 25 196 8.0 25.7 0.00 0.00 0.00 77 1009.2
20260505011523 25 157 9.7 22.5 0.00 0.00 0.00 77 1009.3
20260505010020 25 144 14.5 27.4 0.00 0.00 0.00 76 1009.2
20260505004533 25 161 11.3 22.5 0.00 0.00 0.00 75 1009.3
20260505003019 25 163 12.9 22.5 0.00 0.00 0.00 75 1009.3
20260505001519 26 156 12.9 29.0 0.00 0.00 0.00 74 1009.4
20260505000018 26 165 14.5 27.4 0.00 0.00 0.00 73 1009.4
20260504234519 26 181 8.0 24.1 0.00 0.00 0.00 72 1009.7
20260504233020 26 151 8.0 22.5 0.00 0.00 0.00 71 1009.9
20260504231514 26 182 14.5 25.7 0.00 0.00 0.00 71 1009.9
20260504230014 26 163 12.9 27.4 0.00 0.00 0.00 71 1009.8
20260504224513 26 150 12.9 29.0 0.00 0.00 0.00 70 1009.7
20260504223013 27 147 16.1 27.4 0.00 0.00 0.00 68 1009.8
20260504221513 27 128 16.1 29.0 0.00 0.00 0.00 68 1009.7
20260504220011 27 194 19.3 30.6 0.00 0.00 0.00 66 1009.6
20260504214507 27 163 17.7 27.4 0.00 0.00 0.00 66 1010.0
20260504213016 27 188 11.3 24.1 0.00 0.00 0.00 66 1010.2
20260504211503 28 157 12.9 24.1 0.00 0.00 0.00 65 1010.4
20260504210002 28 168 14.5 29.0 0.00 0.00 0.00 65 1010.5
20260504204600 28 148 16.1 30.6 0.00 0.00 0.00 65 1010.6
20260504203059 28 138 14.5 29.0 0.00 0.00 0.00 65 1010.8
20260504201601 28 167 12.9 30.6 0.00 0.00 0.00 64 1011.0
20260504200056 28 142 14.5 30.6 0.00 0.00 0.00 64 1011.3
20260504194602 28 186 14.5 27.4 0.00 0.00 0.00 62 1011.2
20260504193055 28 157 19.3 33.8 0.00 0.00 0.00 62 1011.4
20260504191613 28 119 14.5 32.2 0.00 0.00 0.00 64 1011.5
20260504190050 28 138 17.7 32.2 0.00 0.00 0.00 63 1011.8
20260504184556 28 167 12.9 27.4 0.00 0.00 0.00 62 1011.8
20260504183048 28 157 12.9 30.6 0.00 0.00 0.00 63 1011.9
20260504181547 27 174 14.5 27.4 0.00 0.00 0.00 64 1012.0
20260504180045 28 148 14.5 25.7 0.00 0.00 0.00 61 1012.0
20260504174542 28 157 14.5 30.6 0.00 0.00 0.00 62 1012.3
20260504173039 28 157 14.5 30.6 0.00 0.00 0.00 62 1012.6
20260504171540 28 174 17.7 30.6 0.00 0.00 0.00 63 1012.6